TimeCST,TemperatureF,Dew PointF,Humidity,Sea Level PressureIn,VisibilityMPH,Wind Direction,Wind SpeedMPH,Gust SpeedMPH,PrecipitationIn,Events,Conditions,WindDirDegrees,DateUTC
12:15 AM,28.4,12.2,51,30.25,10.0,SW,4.6,-,N/A,,Scattered Clouds,220,2013-12-31 06:15:00
12:35 AM,26.6,12.2,55,30.25,10.0,WSW,3.5,-,N/A,,Scattered Clouds,250,2013-12-31 06:35:00
12:55 AM,26.6,12.2,55,30.25,10.0,WSW,3.5,-,N/A,,Clear,240,2013-12-31 06:55:00
1:15 AM,26.6,12.2,55,30.25,10.0,WSW,3.5,-,N/A,,Clear,240,2013-12-31 07:15:00
1:35 AM,26.6,12.2,55,30.25,10.0,Calm,Calm,-,N/A,,Scattered Clouds,0,2013-12-31 07:35:00
1:55 AM,26.6,14.0,59,30.25,10.0,Calm,Calm,-,N/A,,Mostly Cloudy,0,2013-12-31 07:55:00
2:15 AM,26.6,12.2,55,30.27,10.0,SW,3.5,-,N/A,,Scattered Clouds,230,2013-12-31 08:15:00
2:35 AM,26.6,12.2,55,30.27,10.0,SW,3.5,-,N/A,,Clear,230,2013-12-31 08:35:00
2:55 AM,26.6,14.0,59,30.27,10.0,Calm,Calm,-,N/A,,Clear,0,2013-12-31 08:55:00
3:15 AM,24.8,14.0,64,30.27,10.0,SW,3.5,-,N/A,,Clear,230,2013-12-31 09:15:00
3:35 AM,24.8,14.0,64,30.28,10.0,SW,5.8,-,N/A,,Clear,220,2013-12-31 09:35:00
3:55 AM,26.6,14.0,59,30.28,10.0,SW,5.8,-,N/A,,Clear,230,2013-12-31 09:55:00
4:15 AM,24.8,14.0,64,30.29,10.0,WSW,4.6,-,N/A,,Clear,250,2013-12-31 10:15:00
4:35 AM,24.8,14.0,64,30.30,10.0,SW,5.8,-,N/A,,Clear,230,2013-12-31 10:35:00
4:55 AM,26.6,14.0,59,30.32,10.0,WSW,6.9,-,N/A,,Clear,240,2013-12-31 10:55:00
5:15 AM,26.6,14.0,59,30.32,10.0,West,10.4,-,N/A,,Clear,270,2013-12-31 11:15:00
5:35 AM,26.6,15.8,64,30.33,10.0,West,8.1,-,N/A,,Clear,270,2013-12-31 11:35:00
5:55 AM,26.6,15.8,64,30.32,10.0,West,5.8,-,N/A,,Clear,270,2013-12-31 11:55:00
6:15 AM,26.6,15.8,64,30.32,10.0,West,4.6,-,N/A,,Clear,280,2013-12-31 12:15:00
6:35 AM,24.8,15.8,69,30.33,10.0,WNW,3.5,-,N/A,,Clear,300,2013-12-31 12:35:00
6:55 AM,24.8,15.8,69,30.34,10.0,West,5.8,-,N/A,,Clear,270,2013-12-31 12:55:00
7:15 AM,24.8,15.8,69,30.35,10.0,WSW,3.5,-,N/A,,Clear,250,2013-12-31 13:15:00
7:35 AM,23.0,15.8,74,30.36,10.0,Calm,Calm,-,N/A,,Clear,0,2013-12-31 13:35:00
7:55 AM,24.8,15.8,69,30.36,10.0,Calm,Calm,-,N/A,,Clear,0,2013-12-31 13:55:00
8:15 AM,26.6,17.6,69,30.38,10.0,Calm,Calm,-,N/A,,Clear,0,2013-12-31 14:15:00
8:35 AM,26.6,17.6,69,30.39,10.0,West,3.5,-,N/A,,Clear,260,2013-12-31 14:35:00
8:55 AM,28.4,17.6,64,30.41,10.0,West,5.8,-,N/A,,Clear,260,2013-12-31 14:55:00
9:15 AM,28.4,17.6,64,30.42,10.0,West,5.8,-,N/A,,Clear,280,2013-12-31 15:15:00
9:35 AM,30.2,17.6,60,30.42,10.0,West,6.9,-,N/A,,Clear,270,2013-12-31 15:35:00
9:55 AM,30.2,17.6,60,30.43,10.0,West,4.6,-,N/A,,Clear,280,2013-12-31 15:55:00
10:15 AM,30.2,17.6,60,30.43,10.0,WNW,4.6,-,N/A,,Clear,300,2013-12-31 16:15:00
10:35 AM,32.0,19.4,60,30.41,10.0,Calm,Calm,-,N/A,,Clear,0,2013-12-31 16:35:00
10:55 AM,32.0,19.4,60,30.40,10.0,Calm,Calm,-,N/A,,Clear,0,2013-12-31 16:55:00
11:15 AM,32.0,19.4,60,30.40,10.0,Calm,Calm,-,N/A,,Clear,0,2013-12-31 17:15:00
11:35 AM,32.0,19.4,60,30.39,10.0,Calm,Calm,-,N/A,,Clear,0,2013-12-31 17:35:00
11:55 AM,32.0,19.4,60,30.37,10.0,Calm,Calm,-,N/A,,Clear,0,2013-12-31 17:55:00
12:15 PM,33.8,19.4,56,30.36,10.0,Calm,Calm,-,N/A,,Clear,0,2013-12-31 18:15:00
12:35 PM,35.6,19.4,52,30.35,10.0,Calm,Calm,-,N/A,,Clear,0,2013-12-31 18:35:00
12:55 PM,35.6,21.2,56,30.33,10.0,South,4.6,-,N/A,,Clear,170,2013-12-31 18:55:00
1:15 PM,37.4,21.2,52,30.32,10.0,SSE,6.9,-,N/A,,Clear,160,2013-12-31 19:15:00
1:35 PM,37.4,21.2,52,30.31,10.0,SSE,8.1,-,N/A,,Clear,150,2013-12-31 19:35:00
1:55 PM,37.4,21.2,52,30.30,10.0,SSE,8.1,-,N/A,,Clear,160,2013-12-31 19:55:00
2:15 PM,39.2,21.2,49,30.28,10.0,SE,8.1,-,N/A,,Clear,140,2013-12-31 20:15:00
2:35 PM,39.2,21.2,49,30.27,10.0,SE,6.9,-,N/A,,Clear,140,2013-12-31 20:35:00
2:55 PM,41.0,21.2,45,30.26,10.0,SSE,6.9,-,N/A,,Clear,160,2013-12-31 20:55:00
3:15 PM,39.2,21.2,49,30.25,10.0,South,5.8,-,N/A,,Clear,170,2013-12-31 21:15:00
3:35 PM,37.4,21.2,52,30.26,10.0,SSE,6.9,-,N/A,,Clear,160,2013-12-31 21:35:00
3:55 PM,37.4,21.2,52,30.25,10.0,SSE,6.9,-,N/A,,Clear,160,2013-12-31 21:55:00
4:15 PM,37.4,23.0,56,30.25,10.0,SSE,5.8,-,N/A,,Clear,150,2013-12-31 22:15:00
4:35 PM,35.6,23.0,60,30.25,10.0,SSE,4.6,-,N/A,,Clear,150,2013-12-31 22:35:00
4:55 PM,37.4,23.0,56,30.24,10.0,SSE,5.8,-,N/A,,Clear,150,2013-12-31 22:55:00
5:15 PM,35.6,23.0,60,30.24,10.0,SSE,6.9,-,N/A,,Clear,160,2013-12-31 23:15:00
5:35 PM,35.6,21.2,56,30.24,10.0,South,10.4,-,N/A,,Clear,170,2013-12-31 23:35:00
5:55 PM,35.6,23.0,60,30.24,10.0,South,9.2,-,N/A,,Clear,180,2013-12-31 23:55:00
6:15 PM,35.6,23.0,60,30.24,10.0,South,16.1,19.6,N/A,,Clear,170,2014-01-01 00:15:00
6:35 PM,35.6,23.0,60,30.24,10.0,South,17.3,23.0,N/A,,Clear,180,2014-01-01 00:35:00
6:55 PM,35.6,23.0,60,30.24,10.0,South,17.3,20.7,N/A,,Clear,170,2014-01-01 00:55:00
7:15 PM,35.6,24.8,65,30.24,10.0,South,16.1,23.0,N/A,,Clear,170,2014-01-01 01:15:00
7:35 PM,35.6,24.8,65,30.24,10.0,South,12.7,24.2,N/A,,Clear,180,2014-01-01 01:35:00
7:55 PM,35.6,26.6,70,30.25,10.0,South,15.0,23.0,N/A,,Clear,190,2014-01-01 01:55:00
8:15 PM,35.6,26.6,70,30.25,10.0,South,16.1,26.5,N/A,,Clear,190,2014-01-01 02:15:00
8:35 PM,33.8,26.6,75,30.25,10.0,South,15.0,24.2,N/A,,Clear,190,2014-01-01 02:35:00
8:55 PM,33.8,26.6,75,30.24,10.0,South,13.8,19.6,N/A,,Clear,190,2014-01-01 02:55:00
9:15 PM,33.8,26.6,75,30.24,10.0,South,12.7,20.7,N/A,,Clear,190,2014-01-01 03:15:00
9:35 PM,33.8,26.6,75,30.24,10.0,South,12.7,19.6,N/A,,Clear,190,2014-01-01 03:35:00
9:55 PM,33.8,26.6,75,30.24,10.0,South,11.5,17.3,N/A,,Clear,190,2014-01-01 03:55:00
10:15 PM,33.8,26.6,75,30.24,10.0,South,10.4,18.4,N/A,,Clear,190,2014-01-01 04:15:00
10:35 PM,33.8,26.6,75,30.23,10.0,South,10.4,19.6,N/A,,Clear,180,2014-01-01 04:35:00
10:55 PM,33.8,26.6,75,30.24,10.0,South,8.1,-,N/A,,Clear,190,2014-01-01 04:55:00
11:15 PM,33.8,28.4,81,30.24,10.0,South,10.4,-,N/A,,Clear,190,2014-01-01 05:15:00
11:35 PM,33.8,28.4,81,30.23,10.0,South,6.9,-,N/A,,Clear,180,2014-01-01 05:35:00
11:55 PM,33.8,28.4,81,30.23,10.0,South,9.2,-,N/A,,Clear,180,2014-01-01 05:55:00